Torna al catalogo

CZ-3B DEB

LostGTO
NORAD 40838·DEBRIS·🇨🇳 China

Lanciato Dec 19, 2011 da Xichang Satellite Launch Center

Loading…

TLE

ObsoletoSource: Space-Track

Epoca: May 13, 2026, 08:44 UTC

1 40838U 11077T   26133.36454437  .00001251  00000-0  23447-2 0  9991
2 40838  25.7957 235.9640 7485811 230.5464  35.8242  1.95935609 79565

Traccia CZ-3B DEB in tempo reale con AllMySat

Download on the App Store